Weather in Nizhnyaya Veduga

Russia / Voronezh Oblast     51°44′54″N   38°40′14″E
temp.,
°C
wind,
m/s
gust,
m/s
humid.,
%
clouds,
%
prec.,
mm/h
press.,
hPa
HPBL,
m
2 march, tue
tue200:00−1w6108398 0.0 1025700
03:00−1wsw7138899 0.0 1022522
06:000w71488100 0.0 1019718
09:00+1w81387100 0.0 1017749
12:00+1w71293100 0.1 1014709
15:00+1w71397100 0.3 1012596
18:00+1wnw61397100 1.0 1011586
21:000nw61097100 1.3 1011554
3 march, wed
wed300:00−1nnw5129599 0.4 1012591
03:00−2nnw6128990 0.4 1014484
06:00−2nw7138990 0.0 1015598
09:00−2nnw7118692 0.1 1017911
12:00−2nnw7117292 0.1 10181105
15:00−1nw7107251 0.1 10191050
18:00−2wnw4108328 0.0 1019534
21:00−2wnw5118729 0.0 1020548
4 march, thu
thu400:00−2wnw4108588 0.0 1018590
03:00−2wsw5109191 0.0 1017358
06:00−2wsw6129092 0.0 1015354
09:00−1wsw7148053 0.0 1014489
12:00+2wsw915660 0.0 1011725
15:00+4wsw9155820 0.0 1008851
18:00+3sw7177320 0.0 1006673
21:00+3wsw7158433 0.0 1005659
5 march, fri
fri500:00+3wsw61391100 0.1 1005540
03:00+2wsw61292100 0.1 1005430
06:00+1wsw51095100 0.0 1006352
09:00+2wsw51095100 0.1 1007476
12:00+3wsw598199 0.0 1007781
15:00+2ssw269999 1.8 1006255
18:00+2wsw51298100 3.9 1004506
21:00+2w4998100 6.6 1004332
6 march, sat
sat600:00+1wnw5997100 0.0 1005450
03:00−2n61086100 0.1 1007638
06:00−3nnw6978100 0.0 1010724
09:00−3nw687585 0.1 1012711
12:00−2nw68550 0.0 10131111
15:00−2nw68520 0.0 10141249
18:00−3nw46600 0.0 10151032
21:00−4nw356024 0.0 1016919